| time (UTC) | temp C | wind direction | speed KPH | gust KPH | rain 1hr cm | rain 24hr cm | rain mn cm | humidity % | barometer mb |
| 20260505121804 | 21 | 185 | 3.2 | 11.3 | 0.00 | 0.00 | 0.00 | 91 | 1009.6 |
| 20260505120904 | 20 | 183 | 1.6 | 11.3 | 0.00 | 0.00 | 0.00 | 92 | 1009.3 |
| 20260505120004 | 20 | 182 | 1.6 | 4.8 | 0.00 | 0.00 | 0.00 | 92 | 1009.4 |
| 20260505115403 | 20 | 178 | 1.6 | 6.4 | 0.00 | 0.00 | 0.00 | 92 | 1009.6 |
| 20260505114503 | 20 | 184 | 1.6 | 6.4 | 0.00 | 0.00 | 0.00 | 92 | 1009.6 |
| 20260505113603 | 20 | 196 | 1.6 | 9.7 | 0.00 | 0.00 | 0.00 | 92 | 1009.6 |
| 20260505112704 | 20 | 192 | 1.6 | 8.0 | 0.00 | 0.00 | 0.00 | 92 | 1009.3 |
| 20260505111803 | 20 | 185 | 1.6 | 8.0 | 0.00 | 0.00 | 0.00 | 92 | 1009.3 |
| 20260505110904 | 20 | 175 | 1.6 | 4.8 | 0.00 | 0.00 | 0.00 | 93 | 1009.3 |
| 20260505110211 | 20 | 160 | 0.0 | 3.2 | 0.00 | 0.00 | 0.00 | 92 | 1009.3 |
| 20260505101803 | 20 | 182 | 1.6 | 6.4 | 0.00 | 0.00 | 0.00 | 92 | 1009.3 |
| 20260505101111 | 20 | 186 | 1.6 | 6.4 | 0.00 | 0.00 | 0.00 | 92 | 1009.3 |
| 20260505100004 | 19 | 166 | 1.6 | 4.8 | 0.00 | 0.00 | 0.00 | 92 | 1009.3 |
| 20260505095610 | 19 | 170 | 1.6 | 4.8 | 0.00 | 0.00 | 0.00 | 92 | 1009.3 |
| 20260505094710 | 19 | 166 | 0.0 | 4.8 | 0.00 | 0.00 | 0.00 | 92 | 1009.3 |
| 20260505093603 | 20 | 159 | 1.6 | 8.0 | 0.00 | 0.00 | 0.00 | 91 | 1009.4 |
| 20260505092703 | 20 | 163 | 1.6 | 8.0 | 0.00 | 0.00 | 0.00 | 91 | 1009.5 |
| 20260505092011 | 19 | 167 | 1.6 | 4.8 | 0.00 | 0.00 | 0.00 | 91 | 1009.8 |
| 20260505090903 | 20 | 174 | 1.6 | 3.2 | 0.00 | 0.00 | 0.00 | 90 | 1009.8 |
| 20260505090004 | 20 | 176 | 1.6 | 4.8 | 0.00 | 0.00 | 0.00 | 90 | 1009.8 |
| 20260505085404 | 20 | 180 | 1.6 | 4.8 | 0.00 | 0.00 | 0.00 | 89 | 1009.6 |
| 20260505084504 | 20 | 186 | 1.6 | 3.2 | 0.00 | 0.00 | 0.00 | 89 | 1009.8 |
| 20260505083811 | 20 | 170 | 0.0 | 6.4 | 0.00 | 0.00 | 0.00 | 88 | 1009.8 |
| 20260505082703 | 20 | 189 | 1.6 | 6.4 | 0.00 | 0.00 | 0.00 | 87 | 1010.0 |
| 20260505081803 | 20 | 176 | 1.6 | 6.4 | 0.00 | 0.00 | 0.00 | 87 | 1010.4 |
| 20260505080904 | 20 | 179 | 1.6 | 6.4 | 0.00 | 0.00 | 0.00 | 86 | 1010.4 |
| 20260505080212 | 20 | 188 | 1.6 | 6.4 | 0.00 | 0.00 | 0.00 | 86 | 1010.1 |
| 20260505075404 | 20 | 185 | 1.6 | 6.4 | 0.00 | 0.00 | 0.00 | 86 | 1010.1 |
| 20260505074711 | 20 | 173 | 1.6 | 8.0 | 0.00 | 0.00 | 0.00 | 86 | 1010.5 |
| 20260505073603 | 20 | 183 | 1.6 | 8.0 | 0.00 | 0.00 | 0.00 | 85 | 1010.3 |
| 20260505072703 | 20 | 176 | 1.6 | 6.4 | 0.00 | 0.00 | 0.00 | 85 | 1010.4 |
| 20260505071804 | 20 | 182 | 3.2 | 8.0 | 0.00 | 0.00 | 0.00 | 84 | 1010.5 |
| 20260505070903 | 20 | 169 | 1.6 | 6.4 | 0.00 | 0.00 | 0.00 | 84 | 1010.6 |
| 20260505070004 | 20 | 167 | 1.6 | 9.7 | 0.00 | 0.00 | 0.00 | 84 | 1010.6 |
| 20260505065403 | 20 | 177 | 1.6 | 9.7 | 0.00 | 0.00 | 0.00 | 85 | 1010.8 |
| 20260505064503 | 20 | 178 | 1.6 | 4.8 | 0.00 | 0.00 | 0.00 | 84 | 1010.8 |
| 20260505063603 | 20 | 178 | 1.6 | 4.8 | 0.00 | 0.00 | 0.00 | 85 | 1010.9 |
| 20260505062703 | 20 | 177 | 1.6 | 4.8 | 0.00 | 0.00 | 0.00 | 84 | 1011.0 |
| 20260505061803 | 20 | 167 | 1.6 | 4.8 | 0.00 | 0.00 | 0.00 | 85 | 1011.0 |
| 20260505060903 | 20 | 176 | 1.6 | 4.8 | 0.00 | 0.00 | 0.00 | 85 | 1011.0 |
| 20260505060004 | 20 | 175 | 0.0 | 8.0 | 0.00 | 0.00 | 0.00 | 85 | 1011.0 |
| 20260505055403 | 20 | 166 | 1.6 | 8.0 | 0.00 | 0.00 | 0.00 | 84 | 1011.0 |
| 20260505054504 | 20 | 178 | 1.6 | 4.8 | 0.00 | 0.00 | 0.00 | 84 | 1011.2 |
| 20260505053604 | 20 | 175 | 1.6 | 4.8 | 0.00 | 0.00 | 0.00 | 84 | 1011.1 |
| 20260505052704 | 20 | 173 | 1.6 | 6.4 | 0.00 | 0.00 | 0.00 | 83 | 1011.2 |
| 20260505051803 | 20 | 179 | 0.0 | 6.4 | 0.00 | 0.00 | 0.00 | 82 | 1011.4 |
| 20260505050903 | 20 | 177 | 1.6 | 4.8 | 0.00 | 0.00 | 0.00 | 82 | 1011.3 |
| 20260505040903 | 21 | 183 | 1.6 | 8.0 | 0.00 | 0.00 | 0.00 | 78 | 1011.4 |
| 20260505040211 | 21 | 181 | 1.6 | 4.8 | 0.00 | 0.00 | 0.00 | 77 | 1011.9 |
| 20260505035404 | 21 | 183 | 1.6 | 6.4 | 0.00 | 0.00 | 0.00 | 77 | 1011.9 |
| 20260505034503 | 21 | 182 | 1.6 | 6.4 | 0.00 | 0.00 | 0.00 | 76 | 1011.8 |
| 20260505033604 | 21 | 171 | 1.6 | 9.7 | 0.00 | 0.00 | 0.00 | 75 | 1011.7 |
| 20260505032911 | 21 | 171 | 3.2 | 9.7 | 0.00 | 0.00 | 0.00 | 75 | 1011.3 |
| 20260505031803 | 21 | 191 | 1.6 | 8.0 | 0.00 | 0.00 | 0.00 | 74 | 1011.5 |
| 20260505030904 | 21 | 182 | 1.6 | 8.0 | 0.00 | 0.00 | 0.00 | 73 | 1011.9 |
| 20260505030211 | 21 | 182 | 1.6 | 6.4 | 0.00 | 0.00 | 0.00 | 73 | 1011.9 |
| 20260505025403 | 21 | 180 | 1.6 | 6.4 | 0.00 | 0.00 | 0.00 | 72 | 1011.9 |
| 20260505024504 | 22 | 182 | 3.2 | 8.0 | 0.00 | 0.00 | 0.00 | 71 | 1011.4 |
| 20260505023603 | 22 | 196 | 3.2 | 8.0 | 0.00 | 0.00 | 0.00 | 71 | 1011.7 |
| 20260505022911 | 22 | 191 | 1.6 | 8.0 | 0.00 | 0.00 | 0.00 | 71 | 1011.5 |
| 20260505021803 | 22 | 186 | 1.6 | 9.7 | 0.00 | 0.00 | 0.00 | 70 | 1011.8 |
| 20260505020903 | 22 | 196 | 3.2 | 8.0 | 0.00 | 0.00 | 0.00 | 70 | 1011.3 |
| 20260505020004 | 22 | 184 | 1.6 | 6.4 | 0.00 | 0.00 | 0.00 | 70 | 1011.1 |
| 20260505015611 | 22 | 185 | 1.6 | 6.4 | 0.00 | 0.00 | 0.00 | 70 | 1011.3 |
| 20260505014711 | 22 | 182 | 1.6 | 6.4 | 0.00 | 0.00 | 0.00 | 70 | 1011.2 |
| 20260505013604 | 22 | 198 | 3.2 | 8.0 | 0.00 | 0.00 | 0.00 | 70 | 1011.1 |
| 20260505012704 | 22 | 193 | 0.0 | 4.8 | 0.00 | 0.00 | 0.00 | 70 | 1011.1 |
| 20260505012011 | 22 | 190 | 1.6 | 4.8 | 0.00 | 0.00 | 0.00 | 69 | 1011.1 |
| 20260505010903 | 23 | 190 | 3.2 | 6.4 | 0.00 | 0.00 | 0.00 | 67 | 1011.1 |
| 20260505010004 | 23 | 184 | 1.6 | 8.0 | 0.00 | 0.00 | 0.00 | 66 | 1011.0 |
| 20260505005403 | 23 | 198 | 1.6 | 9.7 | 0.00 | 0.00 | 0.00 | 66 | 1011.0 |
| 20260505004503 | 23 | 206 | 3.2 | 11.3 | 0.00 | 0.00 | 0.00 | 65 | 1011.0 |
| 20260505003603 | 23 | 199 | 1.6 | 6.4 | 0.00 | 0.00 | 0.00 | 64 | 1011.1 |
| 20260505002703 | 23 | 190 | 3.2 | 8.0 | 0.00 | 0.00 | 0.00 | 64 | 1011.1 |
| 20260505001803 | 24 | 192 | 1.6 | 8.0 | 0.00 | 0.00 | 0.00 | 63 | 1011.2 |
| 20260505000904 | 24 | 191 | 1.6 | 8.0 | 0.00 | 0.00 | 0.00 | 62 | 1011.2 |
| 20260505000004 | 24 | 191 | 3.2 | 9.7 | 0.00 | 0.00 | 0.00 | 62 | 1011.3 |
| 20260504235404 | 24 | 190 | 3.2 | 9.7 | 0.00 | 0.00 | 0.00 | 62 | 1011.2 |
| 20260504234503 | 24 | 189 | 3.2 | 9.7 | 0.00 | 0.00 | 0.00 | 61 | 1011.3 |
| 20260504233603 | 25 | 186 | 3.2 | 8.0 | 0.00 | 0.00 | 0.00 | 60 | 1011.4 |
| 20260504232704 | 25 | 213 | 3.2 | 9.7 | 0.00 | 0.00 | 0.00 | 60 | 1011.3 |
| 20260504232011 | 25 | 206 | 3.2 | 12.9 | 0.00 | 0.00 | 0.00 | 60 | 1011.3 |
| 20260504230904 | 25 | 199 | 1.6 | 6.4 | 0.00 | 0.00 | 0.00 | 58 | 1011.4 |
| 20260504230004 | 25 | 211 | 1.6 | 6.4 | 0.00 | 0.00 | 0.00 | 57 | 1011.9 |
| 20260504225404 | 26 | 208 | 1.6 | 9.7 | 0.00 | 0.00 | 0.00 | 57 | 1011.5 |
| 20260504224711 | 26 | 207 | 3.2 | 9.7 | 0.00 | 0.00 | 0.00 | 55 | 1011.7 |
| 20260504223603 | 26 | 192 | 1.6 | 8.0 | 0.00 | 0.00 | 0.00 | 53 | 1011.9 |
| 20260504222703 | 26 | 222 | 3.2 | 12.9 | 0.00 | 0.00 | 0.00 | 54 | 1011.7 |
| 20260504222011 | 26 | 211 | 1.6 | 6.4 | 0.00 | 0.00 | 0.00 | 54 | 1011.8 |
| 20260504221111 | 25 | 200 | 1.6 | 11.3 | 0.00 | 0.00 | 0.00 | 53 | 1012.1 |
| 20260504220004 | 26 | 217 | 3.2 | 11.3 | 0.00 | 0.00 | 0.00 | 52 | 1012.1 |
| 20260504215404 | 26 | 203 | 3.2 | 8.0 | 0.00 | 0.00 | 0.00 | 52 | 1012.1 |
| 20260504214711 | 26 | 194 | 3.2 | 6.4 | 0.00 | 0.00 | 0.00 | 51 | 1012.0 |
| 20260504213603 | 26 | 214 | 4.8 | 9.7 | 0.00 | 0.00 | 0.00 | 50 | 1012.3 |
| 20260504212703 | 26 | 191 | 4.8 | 16.1 | 0.00 | 0.00 | 0.00 | 49 | 1012.4 |
| 20260504211803 | 26 | 177 | 3.2 | 9.7 | 0.00 | 0.00 | 0.00 | 49 | 1012.4 |
| 20260504210903 | 27 | 212 | 3.2 | 9.7 | 0.00 | 0.00 | 0.00 | 47 | 1012.7 |
| 20260504210004 | 26 | 229 | 3.2 | 9.7 | 0.00 | 0.00 | 0.00 | 48 | 1013.0 |
| 20260504205403 | 26 | 213 | 4.8 | 11.3 | 0.00 | 0.00 | 0.00 | 47 | 1013.0 |
| 20260504204503 | 26 | 221 | 4.8 | 12.9 | 0.00 | 0.00 | 0.00 | 48 | 1013.0 |
| 20260504203603 | 26 | 228 | 4.8 | 11.3 | 0.00 | 0.00 | 0.00 | 48 | 1013.3 |
| 20260504202703 | 26 | 214 | 4.8 | 12.9 | 0.00 | 0.00 | 0.00 | 48 | 1013.6 |
| 20260504201803 | 26 | 220 | 4.8 | 11.3 | 0.00 | 0.00 | 0.00 | 46 | 1013.6 |
| 20260504200904 | 27 | 207 | 3.2 | 11.3 | 0.00 | 0.00 | 0.00 | 43 | 1013.7 |
| 20260504200004 | 26 | 222 | 4.8 | 14.5 | 0.00 | 0.00 | 0.00 | 49 | 1013.8 |
| 20260504195404 | 26 | 219 | 4.8 | 14.5 | 0.00 | 0.00 | 0.00 | 45 | 1013.8 |
| 20260504194504 | 26 | 218 | 4.8 | 11.3 | 0.00 | 0.00 | 0.00 | 47 | 1014.0 |
| 20260504193603 | 26 | 219 | 3.2 | 12.9 | 0.00 | 0.00 | 0.00 | 43 | 1014.1 |
| 20260504192703 | 26 | 209 | 3.2 | 9.7 | 0.00 | 0.00 | 0.00 | 47 | 1014.2 |
| 20260504191803 | 25 | 207 | 4.8 | 12.9 | 0.00 | 0.00 | 0.00 | 47 | 1014.4 |
| 20260504190904 | 25 | 215 | 3.2 | 8.0 | 0.00 | 0.00 | 0.00 | 45 | 1014.5 |
| 20260504190004 | 26 | 218 | 3.2 | 9.7 | 0.00 | 0.00 | 0.00 | 46 | 1014.5 |
| 20260504185404 | 25 | 213 | 3.2 | 11.3 | 0.00 | 0.00 | 0.00 | 45 | 1014.7 |
| 20260504184711 | 25 | 203 | 4.8 | 14.5 | 0.00 | 0.00 | 0.00 | 44 | 1014.9 |
| 20260504183604 | 25 | 230 | 4.8 | 12.9 | 0.00 | 0.00 | 0.00 | 45 | 1015.0 |
| 20260504182703 | 25 | 205 | 3.2 | 6.4 | 0.00 | 0.00 | 0.00 | 44 | 1014.9 |
| 20260504182011 | 25 | 184 | 3.2 | 9.7 | 0.00 | 0.00 | 0.00 | 44 | 1015.2 |
| 20260504181111 | 25 | 211 | 3.2 | 9.7 | 0.00 | 0.00 | 0.00 | 44 | 1015.2 |
| 20260504180004 | 24 | 210 | 3.2 | 9.7 | 0.00 | 0.00 | 0.00 | 45 | 1015.6 |
| 20260504175611 | 25 | 205 | 3.2 | 9.7 | 0.00 | 0.00 | 0.00 | 44 | 1015.7 |
| 20260504174711 | 25 | 200 | 3.2 | 8.0 | 0.00 | 0.00 | 0.00 | 41 | 1015.7 |
| 20260504173603 | 24 | 216 | 3.2 | 11.3 | 0.00 | 0.00 | 0.00 | 42 | 1016.0 |
| 20260504172703 | 24 | 206 | 4.8 | 11.3 | 0.00 | 0.00 | 0.00 | 42 | 1016.1 |
| 20260504171804 | 23 | 209 | 4.8 | 9.7 | 0.00 | 0.00 | 0.00 | 41 | 1016.0 |
| 20260504171111 | 24 | 212 | 3.2 | 9.7 | 0.00 | 0.00 | 0.00 | 41 | 1016.3 |
| 20260504170211 | 23 | 196 | 3.2 | 9.7 | 0.00 | 0.00 | 0.00 | 44 | 1016.5 |
| 20260504150904 | 21 | 196 | 4.8 | 11.3 | 0.00 | 0.00 | 0.00 | 54 | 1017.2 |
| 20260504140903 | 19 | 173 | 1.6 | 11.3 | 0.00 | 0.00 | 0.00 | 61 | 1017.5 |
| 20260504130211 | 13 | 125 | 0.0 | 1.6 | 0.00 | 0.00 | 0.00 | 95 | 1017.4 |